Peshawar, Pakistan

11:03 AM PKT on April 24, 2017 (GMT +0500)
Peshawar International

Weather History for OPPS - December, 2013

Change the Weather History Date:

Wednesday, December 18, 2013

  Actual Average Record
Temperature  
Mean Temperature 58 °F -  
Max Temperature 69 °F 66 °F - ()
Min Temperature 48 °F 40 °F - ()
Degree Days  
Heating Degree Days 6    
Growing Degree Days 8 (Base 50)    
Moisture  
Dew Point 47 °F    
Average Humidity 74    
Maximum Humidity 87    
Minimum Humidity 49    
Precipitation  
Precipitation 0.00 in 0.03 in - ()
Sea Level Pressure  
Sea Level Pressure 29.92 in    
Wind  
Wind Speed 0 mph ()    
Max Wind Speed 0 mph    
Max Gust Speed -    
Visibility 1.2 miles    
Events      
T = Trace of Precipitation, MM = Missing Value Source: Averaged Metar Reports

Daily Weather History Graph

Daily Weather History Graph

Search for Another Location

Airport or City:

Trip Planner

Search our weather history database for the weather conditions in past years. The results will help you decide how hot, cold, wet, or windy it might be!

Date:

Astronomy

Dec. 18, 2013 Rise Set
Actual Time 7:13 AM PKT 5:07 PM PKT
Civil Twilight 6:45 AM PKT 5:34 PM PKT
Nautical Twilight 6:14 AM PKT 6:06 PM PKT
Astronomical Twilight 5:43 AM PKT 6:36 PM PKT
Moon 6:12 PM PKT (12/18) 7:37 AM PKT (12/18)
Length of Visible Light 10h 49m
Length of Day
9h 53m
Full, 99% of the Moon is Illuminated
Dec 18
Full
Dec 25
Last Quarter
Jan 1
New
Jan 8
First Quarter
Jan 16
Full

Hourly Weather History & Observations

Time (PKT) Temp. Dew Point Humidity Pressure Visibility Wind Dir Wind Speed Gust Speed Precip Events Conditions
12:00 AM 53.6 °F 46.4 °F 77% 29.92 in 1.2 mi Calm Calm - N/A   Haze
1:00 AM 53.6 °F 48.2 °F 82% 29.92 in 1.2 mi Calm Calm - N/A   Scattered Clouds
2:00 AM 51.8 °F 46.4 °F 82% 29.92 in 1.1 mi Calm Calm - N/A   Partly Cloudy
3:00 AM 51.8 °F 46.4 °F 82% 29.92 in 1.1 mi Calm Calm - N/A   Clear
4:59 AM 50.0 °F 44.6 °F 82% 29.95 in 1.0 mi Calm Calm - N/A   Clear
6:00 AM 48.2 °F 44.6 °F 87% 29.95 in 1.2 mi Calm Calm - N/A   Partly Cloudy
7:00 AM 48.2 °F 44.6 °F 87% 29.95 in 1.6 mi Calm Calm - N/A   Partly Cloudy
8:00 AM 48.2 °F 44.6 °F 87% 29.98 in 1.1 mi Calm Calm - N/A   Clear
9:00 AM 50.0 °F 44.6 °F 82% 29.98 in 1.1 mi Calm Calm - N/A   Clear
11:00 AM 57.2 °F 51.8 °F 82% 30.01 in - Calm Calm - N/A   Clear
12:00 PM 64.4 °F 51.8 °F 64% 29.95 in 0.9 mi Calm Calm - N/A   Clear
1:00 PM 66.2 °F 51.8 °F 60% 29.92 in - North - - N/A   Haze
2:00 PM 66.2 °F 51.8 °F 60% 29.89 in - North - - N/A   Haze
3:00 PM 69.8 °F 50.0 °F 49% 29.86 in - North - - N/A   Haze
5:00 PM 64.4 °F 51.8 °F 64% 29.86 in 1.2 mi Calm Calm - N/A   Haze
6:00 PM 59.0 °F 48.2 °F 67% 29.86 in 1.2 mi Calm Calm - N/A   Haze
7:00 PM 57.2 °F 46.4 °F 67% 29.86 in 1.2 mi Calm Calm - N/A   Haze
8:00 PM 51.8 °F 42.8 °F 71% 29.89 in 1.2 mi Calm Calm - N/A   Haze
9:00 PM 51.8 °F 44.6 °F 76% 29.89 in 1.2 mi Calm Calm - N/A   Haze
10:00 PM 51.8 °F 44.6 °F 76% 29.89 in 1.2 mi Calm Calm - N/A   Haze
11:00 PM 51.8 °F 44.6 °F 76% 29.89 in 1.2 mi Calm Calm - N/A   Haze